Regional Weather Roundup
Issued by NWS

Home | Current Version | Previous Version | Text Only | Print | Product List | Glossary On
Versions: 1 2 3 4 5 6 7 8 9 10 11 12 13 14 15 16 17 18 19 20 21 22 23 24 25 26 27 28 29 30 31 32 33 34 35 36 37 38 39 40 41 42 43 44 45 46 47 48 49 50
000
ASUS43 KLMK 270702
RWRKY
KENTUCKY REGIONAL WEATHER ROUNDUP
NATIONAL WEATHER SERVICE LOUISVILLE KY
200 AM EST FRI FEB 27 2015

NOTE "FAIR" INDICATES FEW OR NO CLOUDS BELOW 12,000 FEET
WITH NO SIGNIFICANT WEATHER AND/OR OBSTRUCTIONS TO VISIBILITY.

KYZ001>023-026-027-061>063-070>075-270800-
WESTERN AND SOUTH CENTRAL KENTUCKY

CITY           SKY/WX    TMP DP  RH WIND       PRES   REMARKS
PADUCAH        PTCLDY    19  11  70 N12       30.47R WCI   7
HENDERSON      MOCLDY    18   7  62 N7        30.47R WCI   8
OWENSBORO      CLEAR     17  10  74 N7        30.45R WCI   8
HOPKINSVILLE   FAIR      19  11  70 N9        30.42R WCI   9
BOWLING GREEN  MOCLDY    22  13  68 NW7       30.40R WCI  13
GLASGOW        NOT AVBL
$$

KYZ024-025-028>034-038-045-046-053-270800-
NORTH CENTRAL KENTUCKY

CITY           SKY/WX    TMP DP  RH WIND       PRES   REMARKS
LOUISVILLE/SDF MOCLDY    16   8  71 N5        30.42R WCI   9
LOUISVILLE/LOU PTCLDY    16   7  67 CALM      30.42R
FORT KNOX      CLOUDY    15   9  77 N2        30.38S
$$

KYZ035>037-039>044-047>052-055>060-089>105-270800-
NORTHEAST KENTUCKY

CITY           SKY/WX    TMP DP  RH WIND       PRES   REMARKS
LEXINGTON      CLEAR     12   6  77 N7        30.36R WCI   1
COVINGTON      FLURRIES  13   6  74 NW5       30.36R WCI   5
FRANKFORT      CLEAR     12   4  70 NW5       30.37R WCI   4
$$

KYZ054-064>069-076>088-106>120-270800-
SOUTHEAST KENTUCKY

CITY           SKY/WX    TMP DP  RH WIND       PRES   REMARKS
JACKSON        LGT SNOW  20  13  74 VRB7      30.26R WCI  11
LONDON         CLOUDY    23  15  71 N8        30.28R WCI  14
SOMERSET       NOT AVBL
MIDDLESBORO    CLOUDY    28  22  75 N3        30.25R
MONTICELLO     LGT SNOW  22  18  85 N10       30.35R FOG     WCI  11
$$



USA.gov is the U.S. government's official web portal to all federal, state and local government web resources and services.